DW6400 Weather Reports


time (UTC)temp
C
wind
direction
speed
KPH
gust
KPH
rain 1hr
cm
rain 24hr
cm
rain mn
cm
humidity
%
barometer
mb
20180523234633 26 137 0.0 0.0 0.00 0.00 0.00 14 1004.0
20180523233132 27 132 0.0 0.0 0.00 0.00 0.00 17 1004.1
20180523231632 26 170 0.0 0.0 0.00 0.00 0.00 16 1004.2
20180523230128 27 185 0.0 0.0 0.00 0.00 0.00 17 1004.2
20180523224628 27 136 0.0 0.0 0.00 0.00 0.00 14 1004.5
20180523223124 27 134 0.0 0.0 0.00 0.00 0.00 16 1004.5
20180523221622 26 130 0.0 0.0 0.00 0.00 0.00 17 1004.5
20180523220125 28 144 0.0 0.0 0.00 0.00 0.00 16 1004.6
20180523214617 28 144 0.0 0.0 0.00 0.00 0.00 21 1004.8
20180523213112 26 320 0.0 0.0 0.00 0.00 0.00 18 1005.0
20180523211613 25 319 0.0 0.0 0.00 0.00 0.00 23 1005.1
20180523210112 23 311 0.0 0.0 0.00 0.00 0.00 22 1005.5
20180523204608 23 316 0.0 0.0 0.00 0.00 0.00 23 1005.6
20180523203109 23 302 0.0 0.0 0.00 0.00 0.00 23 1005.6
20180523201607 23 329 0.0 0.0 0.00 0.00 0.00 22 1005.6
20180523200105 25 152 0.0 0.0 0.00 0.00 0.00 25 1005.5
20180523194604 24 143 0.0 0.0 0.00 0.00 0.00 31 1005.7
20180523193104 26 129 0.0 0.0 0.00 0.00 0.00 23 1005.5
20180523191558 25 144 0.0 0.0 0.00 0.00 0.00 23 1005.8
20180523190103 24 142 0.0 0.0 0.00 0.00 0.00 24 1005.9
20180523184559 25 155 0.0 0.0 0.00 0.00 0.00 26 1005.8
20180523183054 25 142 0.0 0.0 0.00 0.00 0.00 25 1006.0
20180523181551 24 121 0.0 0.0 0.00 0.00 0.00 24 1006.2
20180523180048 22 349 0.0 0.0 0.00 0.00 0.00 30 1006.4
20180523174546 22 140 0.0 0.0 0.00 0.00 0.00 34 1006.4
20180523173046 22 143 0.0 0.0 0.00 0.00 0.00 35 1006.4
20180523171547 23 142 0.0 0.0 0.00 0.00 0.00 38 1006.3
20180523170042 20 140 0.0 0.0 0.00 0.00 0.00 38 1006.4
20180523164540 21 142 0.0 0.0 0.00 0.00 0.00 39 1006.5
20180523163037 21 142 0.0 0.0 0.00 0.00 0.00 42 1006.6
20180523161535 20 142 0.0 0.0 0.00 0.00 0.00 47 1006.7
20180523160031 18 142 0.0 0.0 0.00 0.00 0.00 59 1007.0
20180523154525 17 142 0.0 0.0 0.00 0.00 0.00 61 1007.2
20180523153024 16 142 0.0 0.0 0.00 0.00 0.00 62 1007.5
20180523151520 15 142 0.0 0.0 0.00 0.00 0.00 65 1007.7
20180523150010 14 142 0.0 3.2 0.00 0.00 0.00 69 1007.8
20180523144506 13 142 0.0 0.0 0.00 0.00 0.00 75 1008.0
20180523143004 12 142 0.0 0.0 0.00 0.00 0.00 76 1008.1
20180523141500 11 142 0.0 0.0 0.00 0.00 0.00 85 1008.1
20180523135958 10 142 0.0 1.6 0.00 0.00 0.00 87 1008.1
20180523134500 9 142 0.0 0.0 0.00 0.00 0.00 91 1008.1
20180523132956 8 142 0.0 4.8 0.00 0.00 0.00 93 1008.0
20180523131457 7 142 0.0 0.0 0.00 0.00 0.00 91 1008.1
20180523125952 7 142 0.0 1.6 0.00 0.00 0.00 91 1008.1
20180523124453 6 142 0.0 8.0 0.00 0.00 0.00 90 1008.2
20180523122948 6 142 1.6 8.0 0.00 0.00 0.00 92 1008.4
20180523121451 6 142 0.0 3.2 0.00 0.00 0.00 92 1008.3
20180523115951 5 142 0.0 8.0 0.00 0.00 0.00 91 1008.2
20180523114442 6 142 0.0 0.0 0.00 0.00 0.00 90 1008.0
20180523112941 6 142 0.0 0.0 0.00 0.00 0.00 90 1007.8
20180523111438 6 142 0.0 3.2 0.00 0.00 0.00 90 1007.8
20180523105935 6 142 0.0 0.0 0.00 0.00 0.00 90 1007.7
20180523104436 6 142 1.6 4.8 0.00 0.00 0.00 90 1007.7
20180523102936 6 142 0.0 6.4 0.00 0.00 0.00 90 1007.5
20180523101436 6 142 3.2 12.9 0.00 0.00 0.00 90 1007.4
20180523095930 6 337 0.0 1.6 0.00 0.00 0.00 89 1007.3
20180523094430 7 337 0.0 0.0 0.00 0.00 0.00 89 1007.3
20180523092926 7 337 0.0 0.0 0.00 0.00 0.00 89 1007.1
20180523091425 7 337 0.0 8.0 0.00 0.00 0.00 90 1007.2
20180523085923 7 337 0.0 0.0 0.00 0.00 0.00 87 1007.0
20180523084420 7 337 0.0 0.0 0.00 0.00 0.00 86 1007.2
20180523082920 7 337 0.0 0.0 0.00 0.00 0.00 86 1007.0
20180523081416 7 337 0.0 0.0 0.00 0.00 0.00 85 1006.8
20180523075913 8 337 0.0 0.0 0.00 0.00 0.00 84 1006.7
20180523074413 8 337 0.0 0.0 0.00 0.00 0.00 83 1006.5
20180523072909 8 337 0.0 0.0 0.00 0.00 0.00 83 1006.4
20180523071412 9 337 0.0 0.0 0.00 0.00 0.00 82 1006.3
20180523065905 9 337 0.0 0.0 0.00 0.00 0.00 81 1006.3
20180523064405 10 337 0.0 0.0 0.00 0.00 0.00 80 1006.4
20180523062900 10 337 0.0 0.0 0.00 0.00 0.00 79 1006.5
20180523061356 11 337 0.0 0.0 0.00 0.00 0.00 77 1006.6
20180523055854 11 337 0.0 0.0 0.00 0.00 0.00 75 1006.7
20180523054352 12 337 0.0 0.0 0.00 0.00 0.00 72 1006.7
20180523052851 13 337 0.0 0.0 0.00 0.00 0.00 70 1006.8
20180523051350 13 337 0.0 0.0 0.00 0.00 0.00 67 1006.9
20180523045852 13 337 0.0 0.0 0.00 0.00 0.00 65 1006.8
20180523044353 14 337 0.0 1.6 0.00 0.00 0.00 65 1006.9
20180523042850 14 337 0.0 1.6 0.00 0.00 0.00 65 1006.7
20180523041348 15 337 0.0 3.2 0.00 0.00 0.00 64 1006.5
20180523035851 15 337 0.0 4.8 0.00 0.00 0.00 62 1006.4
20180523034347 16 337 0.0 0.0 0.00 0.00 0.00 59 1006.7
20180523032846 16 337 0.0 0.0 0.00 0.00 0.00 56 1006.5
20180523031347 17 337 0.0 0.0 0.00 0.00 0.00 54 1006.3
20180523025849 17 337 0.0 0.0 0.00 0.00 0.00 54 1005.7
20180523024345 18 338 0.0 0.0 0.00 0.00 0.00 51 1005.1
20180523022846 19 143 0.0 0.0 0.00 0.00 0.00 37 1004.8
20180523021347 20 143 0.0 0.0 0.00 0.00 0.00 35 1004.5
20180523015843 21 143 0.0 0.0 0.00 0.00 0.00 32 1004.4
20180523014339 21 143 0.0 0.0 0.00 0.00 0.00 34 1003.8
20180523012842 22 143 0.0 0.0 0.00 0.00 0.00 32 1003.1
20180523011341 22 143 0.0 0.0 0.00 0.00 0.00 29 1002.6
20180523005841 22 139 0.0 0.0 0.00 0.00 0.00 29 1002.4
20180523004339 22 136 0.0 0.0 0.00 0.00 0.00 29 1002.3
20180523002839 22 141 0.0 0.0 0.00 0.00 0.00 28 1002.4
20180523001338 22 138 0.0 0.0 0.00 0.00 0.00 32 1002.2